GSAT-17

Last updated on Aug. 6, 2020, 5:30 a.m. UTC

1 42815U 17040B   20218.88868833 -.00000273  00000-0  00000-0 0  9990
2 42815   0.1173 273.7231 0002069   2.9527  91.6453  1.00272248 11311
UTC
Height (km)
Latitude
Longitude
Inclination
Orbital Period
UTC large
Height (km)
Speed (km/s)
/
Latitude / Longitude
Inclination (degrees)
Orbital Period (minutes)
Azimuth
Elevation
Range (km)
Doppler Factor
iOS Compass Heading
iOS Angle

Next 30 passes for location: Hong Kong

Rise time Rise Azimuth (degrees) Set time Set Azimuth (degrees) Duration Max altitude (degrees)

No matching passes for this satellites